CGBYQ TLPC-TQPF

Flight info

Callsign CGBYQ
Flight time 1h 28m
Altitude 22000
Route MODUX/N0276F250 DCT GABAR
Aircraft PC12/L-SDFGRWY/S

Departure

Time 2026-04-29 11:08
Airport George F. L. Charles Airport (TLPC)

Arrival

Time 2026-04-29 12:36
Airport Clayton J. Lloyd International Airport (TQPF)
Time Latitude Longitude Altitude Speed Heading
2026-04-29 10:53 14.02015 -60.99598 24 ft 0 kts 148°
2026-04-29 11:02 14.02011 -60.99595 24 ft 1 kts 148°
2026-04-29 11:03 14.02010 -60.99595 24 ft 0 kts 148°
2026-04-29 11:04 14.01994 -60.99594 26 ft 7 kts 202°
2026-04-29 11:05 14.01961 -60.99612 24 ft 0 kts 206°
2026-04-29 11:05 14.01939 -60.99626 24 ft 12 kts 221°
2026-04-29 11:05 14.01891 -60.99724 26 ft 18 kts 256°
2026-04-29 11:05 14.01854 -60.99859 28 ft 21 kts 252°
2026-04-29 11:06 14.01802 -61.00006 27 ft 21 kts 251°
2026-04-29 11:06 14.01771 -61.00104 28 ft 8 kts 256°
2026-04-29 11:06 14.01800 -61.00101 28 ft 8 kts 103°
2026-04-29 11:06 14.01801 -61.00065 28 ft 0 kts 72°
2026-04-29 11:07 14.01805 -61.00051 28 ft 14 kts 71°
2026-04-29 11:07 14.01869 -60.99804 28 ft 58 kts 76°
2026-04-29 11:07 14.02013 -60.99277 62 ft 86 kts 70°
2026-04-29 11:07 14.02226 -60.98718 335 ft 83 kts 64°
2026-04-29 11:08 14.02728 -60.98373 543 ft 99 kts 15°
2026-04-29 11:08 14.03438 -60.98581 747 ft 117 kts 328°
2026-04-29 11:08 14.04016 -60.99275 865 ft 137 kts 314°
2026-04-29 11:08 14.04714 -60.99999 1059 ft 148 kts 315°
2026-04-29 11:09 14.05422 -61.00811 1305 ft 156 kts 314°
2026-04-29 11:09 14.06140 -61.01670 1585 ft 160 kts 308°
2026-04-29 11:09 14.06853 -61.02536 1871 ft 162 kts 323°
2026-04-29 11:09 14.07784 -61.03213 2186 ft 163 kts 331°
2026-04-29 11:10 14.08728 -61.03835 2511 ft 163 kts 331°
2026-04-29 11:10 14.09690 -61.04476 2814 ft 165 kts 331°
2026-04-29 11:10 14.10653 -61.05123 3097 ft 165 kts 331°
2026-04-29 11:10 14.11641 -61.05783 3287 ft 177 kts 331°
2026-04-29 11:11 14.12723 -61.06506 3467 ft 192 kts 330°
2026-04-29 11:11 14.13866 -61.07275 3713 ft 200 kts 330°
2026-04-29 11:11 14.15040 -61.08068 3973 ft 204 kts 330°
2026-04-29 11:11 14.16232 -61.08869 4238 ft 206 kts 330°
2026-04-29 11:12 14.17438 -61.09679 4507 ft 208 kts 330°
2026-04-29 11:12 14.18654 -61.10495 4788 ft 209 kts 330°
2026-04-29 11:12 14.19875 -61.11318 5071 ft 210 kts 330°
2026-04-29 11:12 14.21101 -61.12145 5346 ft 210 kts 330°
2026-04-29 11:13 14.22329 -61.12973 5616 ft 211 kts 330°
2026-04-29 11:13 14.23557 -61.13800 5895 ft 210 kts 330°
2026-04-29 11:13 14.24783 -61.14625 6173 ft 211 kts 330°
2026-04-29 11:13 14.26013 -61.15452 6437 ft 211 kts 330°
2026-04-29 11:14 14.27248 -61.16284 6706 ft 212 kts 330°
2026-04-29 11:14 14.28484 -61.17114 6974 ft 212 kts 330°
2026-04-29 11:14 14.29724 -61.17949 7243 ft 213 kts 330°
2026-04-29 11:14 14.30965 -61.18786 7508 ft 213 kts 330°
2026-04-29 11:15 14.32207 -61.19622 7780 ft 213 kts 330°
2026-04-29 11:15 14.33449 -61.20459 8039 ft 214 kts 330°
2026-04-29 11:15 14.34694 -61.21298 8308 ft 213 kts 330°
2026-04-29 11:15 14.35917 -61.22121 8568 ft 213 kts 330°
2026-04-29 11:16 14.37158 -61.22959 8825 ft 213 kts 330°
2026-04-29 11:16 14.38399 -61.23796 9088 ft 213 kts 330°
2026-04-29 11:16 14.39637 -61.24630 9344 ft 213 kts 330°
2026-04-29 11:16 14.40879 -61.25468 9598 ft 213 kts 330°
2026-04-29 11:17 14.42120 -61.26303 9862 ft 213 kts 330°
2026-04-29 11:17 14.43357 -61.27138 10119 ft 211 kts 330°
2026-04-29 11:17 14.44587 -61.27966 10374 ft 211 kts 330°
2026-04-29 11:17 14.45815 -61.28796 10627 ft 211 kts 330°
2026-04-29 11:18 14.47041 -61.29627 10880 ft 211 kts 330°
2026-04-29 11:18 14.48266 -61.30453 11131 ft 210 kts 329°
2026-04-29 11:18 14.49491 -61.31279 11383 ft 210 kts 329°
2026-04-29 11:18 14.50713 -61.32103 11635 ft 210 kts 329°
2026-04-29 11:19 14.51932 -61.32925 11882 ft 209 kts 329°
2026-04-29 11:19 14.53132 -61.33735 12126 ft 209 kts 329°
2026-04-29 11:19 14.54346 -61.34555 12371 ft 208 kts 329°
2026-04-29 11:19 14.55562 -61.35377 12613 ft 209 kts 329°
2026-04-29 11:20 14.56781 -61.36201 12855 ft 210 kts 328°
2026-04-29 11:20 14.58004 -61.37026 13090 ft 210 kts 328°
2026-04-29 11:20 14.59226 -61.37853 13339 ft 210 kts 328°
2026-04-29 11:20 14.60453 -61.38682 13579 ft 211 kts 328°
2026-04-29 11:21 14.61679 -61.39510 13816 ft 211 kts 328°
2026-04-29 11:21 14.62909 -61.40342 14053 ft 211 kts 328°
2026-04-29 11:21 14.64139 -61.41173 14288 ft 212 kts 328°
2026-04-29 11:21 14.65371 -61.42006 14521 ft 212 kts 328°
2026-04-29 11:22 14.66609 -61.42842 14752 ft 212 kts 327°
2026-04-29 11:22 14.67845 -61.43678 14985 ft 212 kts 327°
2026-04-29 11:22 14.69082 -61.44516 15214 ft 213 kts 327°
2026-04-29 11:22 14.70321 -61.45353 15444 ft 213 kts 327°
2026-04-29 11:23 14.71563 -61.46194 15671 ft 213 kts 327°
2026-04-29 11:23 14.72804 -61.47034 15895 ft 213 kts 327°
2026-04-29 11:23 14.74058 -61.47883 16022 ft 219 kts 327°
2026-04-29 11:23 14.75361 -61.48764 16025 ft 229 kts 327°
2026-04-29 11:24 14.76712 -61.49678 16028 ft 235 kts 327°
2026-04-29 11:24 14.78099 -61.50616 16030 ft 240 kts 326°
2026-04-29 11:24 14.79488 -61.51557 16030 ft 243 kts 326°
2026-04-29 11:24 14.80911 -61.52522 16031 ft 246 kts 326°
2026-04-29 11:25 14.82345 -61.53492 16032 ft 247 kts 326°
2026-04-29 11:25 14.83789 -61.54470 16032 ft 248 kts 326°
2026-04-29 11:25 14.85240 -61.55454 16007 ft 250 kts 326°
2026-04-29 11:25 14.86698 -61.56442 16007 ft 251 kts 326°
2026-04-29 11:26 14.89624 -61.58426 16007 ft 252 kts 326°
2026-04-29 11:26 14.91093 -61.59421 16007 ft 252 kts 326°
2026-04-29 11:26 14.92560 -61.60416 16007 ft 253 kts 326°
2026-04-29 11:27 14.94028 -61.61414 16007 ft 253 kts 326°
2026-04-29 11:27 14.95500 -61.62411 16007 ft 252 kts 326°
2026-04-29 11:27 14.96970 -61.63407 16001 ft 253 kts 326°
2026-04-29 11:27 14.98442 -61.64408 15992 ft 253 kts 326°
2026-04-29 11:28 14.99911 -61.65405 15992 ft 253 kts 326°
2026-04-29 11:28 15.01382 -61.66404 16003 ft 252 kts 326°
2026-04-29 11:28 15.02849 -61.67400 16003 ft 252 kts 326°
2026-04-29 11:28 15.04316 -61.68396 16003 ft 252 kts 326°
2026-04-29 11:29 15.05782 -61.69392 16003 ft 252 kts 326°
2026-04-29 11:29 15.06754 -61.70053 16003 ft 252 kts 326°
2026-04-29 11:29 15.08698 -61.71373 16003 ft 252 kts 326°
2026-04-29 11:29 15.09685 -61.72044 16003 ft 252 kts 326°
2026-04-29 11:30 15.11625 -61.73362 16003 ft 252 kts 326°
2026-04-29 11:30 15.13088 -61.74357 16003 ft 251 kts 326°
2026-04-29 11:30 15.14073 -61.75027 16003 ft 251 kts 326°
2026-04-29 11:30 15.15536 -61.76022 16003 ft 252 kts 326°
2026-04-29 11:31 15.17000 -61.77017 16003 ft 251 kts 326°
2026-04-29 11:31 15.18444 -61.77999 16003 ft 251 kts 326°
2026-04-29 11:31 15.19905 -61.78993 16003 ft 251 kts 326°
2026-04-29 11:31 15.21363 -61.79985 16003 ft 251 kts 326°
2026-04-29 11:32 15.22826 -61.80981 16003 ft 251 kts 326°
2026-04-29 11:32 15.24286 -61.81975 16003 ft 251 kts 326°
2026-04-29 11:32 15.25748 -61.82970 16003 ft 251 kts 326°
2026-04-29 11:32 15.27206 -61.83962 16003 ft 251 kts 326°
2026-04-29 11:33 15.28662 -61.84954 16002 ft 250 kts 326°
2026-04-29 11:33 15.30117 -61.85945 16004 ft 251 kts 326°
2026-04-29 11:33 15.31576 -61.86938 16004 ft 251 kts 326°
2026-04-29 11:33 15.33030 -61.87929 16003 ft 251 kts 326°
2026-04-29 11:34 15.34489 -61.88924 16003 ft 251 kts 326°
2026-04-29 11:34 15.35952 -61.89921 16003 ft 251 kts 326°
2026-04-29 11:34 15.37412 -61.90917 16003 ft 251 kts 326°
2026-04-29 11:34 15.38871 -61.91911 16002 ft 251 kts 325°
2026-04-29 11:35 15.40327 -61.92904 16003 ft 251 kts 325°
2026-04-29 11:35 15.41784 -61.93897 16003 ft 251 kts 325°
2026-04-29 11:35 15.43243 -61.94891 16003 ft 251 kts 325°
2026-04-29 11:35 15.44700 -61.95886 16003 ft 251 kts 325°
2026-04-29 11:36 15.46157 -61.96881 16003 ft 251 kts 325°
2026-04-29 11:36 15.47616 -61.97877 16003 ft 251 kts 325°
2026-04-29 11:36 15.49059 -61.98863 16003 ft 251 kts 325°
2026-04-29 11:36 15.50520 -61.99860 16003 ft 252 kts 325°
2026-04-29 11:37 15.51983 -62.00859 16003 ft 252 kts 325°
2026-04-29 11:37 15.53450 -62.01861 16012 ft 253 kts 325°
2026-04-29 11:37 15.54922 -62.02866 16012 ft 254 kts 325°
2026-04-29 11:37 15.56398 -62.03874 16013 ft 254 kts 325°
2026-04-29 11:38 15.57879 -62.04886 16013 ft 255 kts 325°
2026-04-29 11:38 15.59362 -62.05899 16013 ft 255 kts 325°
2026-04-29 11:38 15.60847 -62.06915 16013 ft 255 kts 325°
2026-04-29 11:38 15.62332 -62.07930 16012 ft 255 kts 325°
2026-04-29 11:39 15.63814 -62.08943 16012 ft 255 kts 325°
2026-04-29 11:39 15.65299 -62.09959 16014 ft 255 kts 325°
2026-04-29 11:39 15.66784 -62.10974 16014 ft 256 kts 325°
2026-04-29 11:39 15.68248 -62.11976 16012 ft 255 kts 325°
2026-04-29 11:40 15.69732 -62.12992 16012 ft 255 kts 325°
2026-04-29 11:40 15.71215 -62.14007 16013 ft 255 kts 325°
2026-04-29 11:40 15.72697 -62.15022 16013 ft 255 kts 325°
2026-04-29 11:40 15.74181 -62.16037 16013 ft 255 kts 325°
2026-04-29 11:41 15.75662 -62.17051 16012 ft 255 kts 325°
2026-04-29 11:41 15.77141 -62.18064 16013 ft 255 kts 325°
2026-04-29 11:41 15.78620 -62.19077 16009 ft 255 kts 325°
2026-04-29 11:41 15.80098 -62.20091 16007 ft 255 kts 325°
2026-04-29 11:42 15.81575 -62.21102 16000 ft 255 kts 325°
2026-04-29 11:42 15.83056 -62.22116 15998 ft 255 kts 325°
2026-04-29 11:42 15.84534 -62.23130 15998 ft 255 kts 325°
2026-04-29 11:42 15.86010 -62.24142 15997 ft 255 kts 325°
2026-04-29 11:43 15.87490 -62.25158 15997 ft 254 kts 325°
2026-04-29 11:43 15.88967 -62.26170 15997 ft 254 kts 325°
2026-04-29 11:43 15.90443 -62.27183 15997 ft 254 kts 325°
2026-04-29 11:43 15.91922 -62.28198 15997 ft 254 kts 325°
2026-04-29 11:44 15.93396 -62.29210 15997 ft 254 kts 325°
2026-04-29 11:44 15.94854 -62.30210 15997 ft 254 kts 325°
2026-04-29 11:44 15.96332 -62.31224 15997 ft 254 kts 325°
2026-04-29 11:44 15.97810 -62.32239 16002 ft 254 kts 325°
2026-04-29 11:45 15.99283 -62.33251 16002 ft 254 kts 325°
2026-04-29 11:45 16.00758 -62.34264 16002 ft 254 kts 325°
2026-04-29 11:45 16.02233 -62.35277 16002 ft 254 kts 325°
2026-04-29 11:45 16.03707 -62.36290 16002 ft 254 kts 325°
2026-04-29 11:46 16.05180 -62.37303 16002 ft 254 kts 325°
2026-04-29 11:46 16.06654 -62.38316 16002 ft 254 kts 325°
2026-04-29 11:46 16.08127 -62.39329 16002 ft 254 kts 325°
2026-04-29 11:46 16.09602 -62.40342 16002 ft 254 kts 325°
2026-04-29 11:47 16.11078 -62.41357 16002 ft 254 kts 325°
2026-04-29 11:47 16.12554 -62.42372 16002 ft 254 kts 325°
2026-04-29 11:47 16.14032 -62.43389 16002 ft 254 kts 325°
2026-04-29 11:47 16.15488 -62.44391 16002 ft 254 kts 325°
2026-04-29 11:48 16.16963 -62.45406 16002 ft 254 kts 325°
2026-04-29 11:48 16.18438 -62.46421 16002 ft 254 kts 325°
2026-04-29 11:48 16.19911 -62.47436 16002 ft 254 kts 325°
2026-04-29 11:48 16.21388 -62.48453 16002 ft 254 kts 325°
2026-04-29 11:49 16.22862 -62.49468 16002 ft 254 kts 325°
2026-04-29 11:49 16.24335 -62.50483 16002 ft 254 kts 325°
2026-04-29 11:49 16.25810 -62.51499 16002 ft 253 kts 325°
2026-04-29 11:49 16.27279 -62.52511 16002 ft 254 kts 325°
2026-04-29 11:50 16.28750 -62.53524 16002 ft 254 kts 324°
2026-04-29 11:50 16.30221 -62.54539 16002 ft 254 kts 324°
2026-04-29 11:50 16.31694 -62.55554 16002 ft 254 kts 324°
2026-04-29 11:50 16.33165 -62.56569 16002 ft 254 kts 324°
2026-04-29 11:51 16.34637 -62.57584 16002 ft 254 kts 324°
2026-04-29 11:51 16.36106 -62.58597 16002 ft 254 kts 324°
2026-04-29 11:51 16.37578 -62.59614 16002 ft 253 kts 324°
2026-04-29 11:51 16.39046 -62.60627 16002 ft 253 kts 324°
2026-04-29 11:52 16.40516 -62.61641 16002 ft 254 kts 324°
2026-04-29 11:52 16.41985 -62.62655 16002 ft 254 kts 324°
2026-04-29 11:52 16.43439 -62.63659 16002 ft 254 kts 324°
2026-04-29 11:52 16.44910 -62.64675 16002 ft 254 kts 324°
2026-04-29 11:53 16.46382 -62.65691 16003 ft 254 kts 324°
2026-04-29 11:53 16.47851 -62.66708 16002 ft 253 kts 324°
2026-04-29 11:53 16.49320 -62.67722 16003 ft 253 kts 324°
2026-04-29 11:53 16.50792 -62.68738 16003 ft 254 kts 324°
2026-04-29 11:54 16.52259 -62.69753 16002 ft 253 kts 324°
2026-04-29 11:54 16.53728 -62.70769 16003 ft 254 kts 324°
2026-04-29 11:54 16.55202 -62.71787 16003 ft 253 kts 324°
2026-04-29 11:54 16.56666 -62.72803 16002 ft 253 kts 324°
2026-04-29 11:55 16.58138 -62.73820 16003 ft 253 kts 324°
2026-04-29 11:55 16.59605 -62.74833 16003 ft 253 kts 324°
2026-04-29 11:55 16.61073 -62.75849 16003 ft 253 kts 324°
2026-04-29 11:55 16.62541 -62.76865 16003 ft 253 kts 324°
2026-04-29 11:56 16.64010 -62.77882 15998 ft 254 kts 324°
2026-04-29 11:56 16.65464 -62.78889 15988 ft 254 kts 324°
2026-04-29 11:56 16.66934 -62.79909 15989 ft 254 kts 324°
2026-04-29 11:56 16.68406 -62.80928 15989 ft 254 kts 324°
2026-04-29 11:57 16.69885 -62.81951 15989 ft 254 kts 324°
2026-04-29 11:57 16.71358 -62.82972 15989 ft 254 kts 324°
2026-04-29 11:57 16.72829 -62.83992 15989 ft 254 kts 324°
2026-04-29 11:57 16.74300 -62.85012 15988 ft 254 kts 324°
2026-04-29 11:58 16.75773 -62.86033 15988 ft 254 kts 324°
2026-04-29 11:58 16.77242 -62.87051 15989 ft 253 kts 324°
2026-04-29 11:58 16.78711 -62.88070 15989 ft 254 kts 324°
2026-04-29 11:58 16.80182 -62.89090 15988 ft 254 kts 324°
2026-04-29 11:59 16.81652 -62.90110 15989 ft 254 kts 324°
2026-04-29 11:59 16.83116 -62.91127 15991 ft 254 kts 324°
2026-04-29 11:59 16.84571 -62.92137 15990 ft 254 kts 324°
2026-04-29 11:59 16.86040 -62.93157 15988 ft 254 kts 324°
2026-04-29 12:00 16.87512 -62.94178 15989 ft 254 kts 324°
2026-04-29 12:00 16.88981 -62.95198 15989 ft 254 kts 324°
2026-04-29 12:00 16.90449 -62.96219 15989 ft 254 kts 324°
2026-04-29 12:00 16.91918 -62.97239 15989 ft 254 kts 324°
2026-04-29 12:01 16.93389 -62.98261 15989 ft 254 kts 324°
2026-04-29 12:01 16.94867 -62.99263 15987 ft 253 kts 328°
2026-04-29 12:01 16.96528 -62.99893 15985 ft 256 kts 347°
2026-04-29 12:01 16.98303 -63.00011 15983 ft 257 kts 358°
2026-04-29 12:02 17.00098 -63.00003 15984 ft 257 kts 358°
2026-04-29 12:02 17.01888 -63.00001 15984 ft 258 kts 358°
2026-04-29 12:02 17.03691 -63.00003 15987 ft 259 kts 358°
2026-04-29 12:02 17.05493 -63.00004 15984 ft 259 kts 358°
2026-04-29 12:03 17.07299 -63.00003 15986 ft 259 kts 358°
2026-04-29 12:03 17.09105 -63.00003 15986 ft 259 kts 358°
2026-04-29 12:03 17.10887 -63.00002 15985 ft 259 kts 358°
2026-04-29 12:03 17.12692 -63.00002 15986 ft 259 kts 358°
2026-04-29 12:04 17.14498 -63.00003 15984 ft 259 kts 358°
2026-04-29 12:04 17.16303 -63.00002 15986 ft 260 kts 358°
2026-04-29 12:04 17.18108 -63.00002 15986 ft 259 kts 358°
2026-04-29 12:04 17.19916 -63.00001 15984 ft 259 kts 358°
2026-04-29 12:05 17.21718 -63.00001 15987 ft 259 kts 358°
2026-04-29 12:05 17.23521 -63.00000 15987 ft 259 kts 358°
2026-04-29 12:05 17.25322 -63.00001 15984 ft 259 kts 358°
2026-04-29 12:05 17.27130 -63.00001 15977 ft 260 kts 358°
2026-04-29 12:06 17.28961 -63.00002 15758 ft 267 kts 358°
2026-04-29 12:06 17.30828 -63.00000 15459 ft 269 kts 359°
2026-04-29 12:06 17.32706 -62.99999 15159 ft 270 kts 359°
2026-04-29 12:06 17.34580 -62.99999 14865 ft 269 kts 359°
2026-04-29 12:07 17.36441 -63.00071 14621 ft 266 kts 355°
2026-04-29 12:07 17.38285 -63.00198 14370 ft 265 kts 355°
2026-04-29 12:07 17.40126 -63.00308 14119 ft 265 kts 356°
2026-04-29 12:07 17.41960 -63.00441 13869 ft 263 kts 352°
2026-04-29 12:08 17.43698 -63.00900 13624 ft 260 kts 341°
2026-04-29 12:08 17.45418 -63.01528 13371 ft 257 kts 340°
2026-04-29 12:08 17.47103 -63.02070 13122 ft 256 kts 344°
2026-04-29 12:08 17.48814 -63.02544 12871 ft 253 kts 345°
2026-04-29 12:09 17.50512 -63.03017 12623 ft 251 kts 344°
2026-04-29 12:09 17.52187 -63.03508 12371 ft 249 kts 344°
2026-04-29 12:09 17.53849 -63.04001 12120 ft 248 kts 344°
2026-04-29 12:09 17.55502 -63.04480 11869 ft 246 kts 345°
2026-04-29 12:10 17.57151 -63.04956 11595 ft 246 kts 345°
2026-04-29 12:10 17.58799 -63.05436 11295 ft 246 kts 345°
2026-04-29 12:10 17.60449 -63.05919 10992 ft 246 kts 345°
2026-04-29 12:10 17.62102 -63.06401 10695 ft 247 kts 345°
2026-04-29 12:11 17.63757 -63.06883 10395 ft 247 kts 346°
2026-04-29 12:11 17.65413 -63.07366 10095 ft 247 kts 346°
2026-04-29 12:11 17.67052 -63.07844 9796 ft 242 kts 346°
2026-04-29 12:11 17.68657 -63.08312 9492 ft 237 kts 346°
2026-04-29 12:12 17.70237 -63.08773 9191 ft 234 kts 346°
2026-04-29 12:12 17.71793 -63.09228 8890 ft 231 kts 347°
2026-04-29 12:12 17.73329 -63.09676 8590 ft 228 kts 347°
2026-04-29 12:12 17.74847 -63.10119 8289 ft 225 kts 347°
2026-04-29 12:13 17.76356 -63.10560 7989 ft 225 kts 347°
2026-04-29 12:13 17.77864 -63.11000 7690 ft 224 kts 347°
2026-04-29 12:13 17.79364 -63.11439 7390 ft 224 kts 347°
2026-04-29 12:13 17.80865 -63.11878 7088 ft 223 kts 347°
2026-04-29 12:14 17.82336 -63.12308 6789 ft 221 kts 347°
2026-04-29 12:14 17.83813 -63.12738 6493 ft 220 kts 347°
2026-04-29 12:14 17.85273 -63.13167 6241 ft 216 kts 347°
2026-04-29 12:14 17.86714 -63.13590 5989 ft 214 kts 347°
2026-04-29 12:15 17.88144 -63.14007 5738 ft 212 kts 347°
2026-04-29 12:15 17.89562 -63.14419 5488 ft 210 kts 347°
2026-04-29 12:15 17.90962 -63.14828 5237 ft 208 kts 347°
2026-04-29 12:15 17.92357 -63.15239 4987 ft 207 kts 347°
2026-04-29 12:16 17.93742 -63.15644 4737 ft 206 kts 347°
2026-04-29 12:16 17.95124 -63.16048 4487 ft 206 kts 347°
2026-04-29 12:16 17.96504 -63.16453 4237 ft 205 kts 347°
2026-04-29 12:16 17.97868 -63.16852 3985 ft 206 kts 347°
2026-04-29 12:17 17.99248 -63.17257 3738 ft 205 kts 347°
2026-04-29 12:17 18.00628 -63.17659 3484 ft 206 kts 347°
2026-04-29 12:17 18.02023 -63.18070 3239 ft 210 kts 347°
2026-04-29 12:17 18.03433 -63.18483 2989 ft 211 kts 347°
2026-04-29 12:18 18.04839 -63.18895 2743 ft 212 kts 347°
2026-04-29 12:18 18.06264 -63.19314 2493 ft 213 kts 347°
2026-04-29 12:18 18.07692 -63.19732 2243 ft 213 kts 347°
2026-04-29 12:18 18.09115 -63.20148 2013 ft 211 kts 347°
2026-04-29 12:19 18.10492 -63.20553 2003 ft 200 kts 347°
2026-04-29 12:19 18.11810 -63.20941 2001 ft 193 kts 347°
2026-04-29 12:19 18.12676 -63.21195 2000 ft 195 kts 347°
2026-04-29 12:19 18.13989 -63.21579 2002 ft 197 kts 347°
2026-04-29 12:20 18.15314 -63.21968 2000 ft 198 kts 347°
2026-04-29 12:20 18.16654 -63.22314 1999 ft 197 kts 355°
2026-04-29 12:20 18.17992 -63.22201 1998 ft 192 kts 18°
2026-04-29 12:20 18.19166 -63.21600 1995 ft 186 kts 39°
2026-04-29 12:21 18.20035 -63.20631 1993 ft 181 kts 59°
2026-04-29 12:21 18.20520 -63.19450 1990 ft 172 kts 78°
2026-04-29 12:21 18.20615 -63.18232 1990 ft 164 kts 92°
2026-04-29 12:21 18.20599 -63.17049 1989 ft 160 kts 91°
2026-04-29 12:22 18.20588 -63.15895 1989 ft 157 kts 91°
2026-04-29 12:22 18.20578 -63.14757 1989 ft 155 kts 91°
2026-04-29 12:22 18.20567 -63.13631 1990 ft 153 kts 91°
2026-04-29 12:22 18.20555 -63.12515 1990 ft 152 kts 92°
2026-04-29 12:23 18.20544 -63.11405 1989 ft 151 kts 92°
2026-04-29 12:23 18.20534 -63.10306 1989 ft 150 kts 92°
2026-04-29 12:23 18.20522 -63.09214 1998 ft 150 kts 92°
2026-04-29 12:23 18.20510 -63.08098 1999 ft 155 kts 92°
2026-04-29 12:24 18.20498 -63.06952 2003 ft 159 kts 91°
2026-04-29 12:24 18.20487 -63.05777 2001 ft 162 kts 92°
2026-04-29 12:24 18.20475 -63.04583 2000 ft 163 kts 91°
2026-04-29 12:24 18.20462 -63.03393 2002 ft 163 kts 92°
2026-04-29 12:25 18.20448 -63.02201 1995 ft 162 kts 92°
2026-04-29 12:25 18.20437 -63.01030 1994 ft 159 kts 91°
2026-04-29 12:25 18.20413 -62.98758 1991 ft 155 kts 92°
2026-04-29 12:26 18.20402 -62.97632 1991 ft 153 kts 92°
2026-04-29 12:26 18.20390 -62.96513 1991 ft 153 kts 92°
2026-04-29 12:26 18.20377 -62.95398 1991 ft 152 kts 92°
2026-04-29 12:26 18.20366 -62.94285 1991 ft 152 kts 92°
2026-04-29 12:27 18.20353 -62.93178 1991 ft 151 kts 92°
2026-04-29 12:27 18.20343 -62.92075 1990 ft 150 kts 92°
2026-04-29 12:27 18.20331 -62.90975 1990 ft 149 kts 92°
2026-04-29 12:27 18.20319 -62.89888 1989 ft 149 kts 92°
2026-04-29 12:28 18.20307 -62.88802 1989 ft 147 kts 92°
2026-04-29 12:28 18.20431 -62.87758 1998 ft 146 kts 63°
2026-04-29 12:28 18.21235 -62.87137 2009 ft 153 kts 13°
2026-04-29 12:28 18.22252 -62.87417 2009 ft 159 kts 321°
2026-04-29 12:29 18.22728 -62.88430 2010 ft 158 kts 274°
2026-04-29 12:29 18.22762 -62.89584 2008 ft 158 kts 269°
2026-04-29 12:29 18.22773 -62.90740 2006 ft 158 kts 269°
2026-04-29 12:29 18.22783 -62.91903 2008 ft 159 kts 269°
2026-04-29 12:30 18.22793 -62.93069 2008 ft 160 kts 269°
2026-04-29 12:30 18.22801 -62.94241 2007 ft 160 kts 269°
2026-04-29 12:30 18.22810 -62.95412 2006 ft 159 kts 269°
2026-04-29 12:30 18.22819 -62.96576 2006 ft 159 kts 269°
2026-04-29 12:31 18.22830 -62.97744 2007 ft 159 kts 269°
2026-04-29 12:31 18.22841 -62.98908 2005 ft 159 kts 269°
2026-04-29 12:31 18.22852 -63.00080 2009 ft 161 kts 269°
2026-04-29 12:31 18.22862 -63.01267 2007 ft 163 kts 269°
2026-04-29 12:32 18.22870 -63.02451 2008 ft 165 kts 269°
2026-04-29 12:32 18.22879 -63.03664 2006 ft 166 kts 269°
2026-04-29 12:32 18.22889 -63.04888 2007 ft 168 kts 269°
2026-04-29 12:32 18.22900 -63.06125 2007 ft 170 kts 269°
2026-04-29 12:33 18.22908 -63.07369 2006 ft 170 kts 269°
2026-04-29 12:33 18.22917 -63.08614 2004 ft 170 kts 269°
2026-04-29 12:33 18.22926 -63.09854 2006 ft 169 kts 269°
2026-04-29 12:33 18.22933 -63.11085 2007 ft 165 kts 266°
2026-04-29 12:34 18.22500 -63.12125 2009 ft 153 kts 216°
2026-04-29 12:34 18.21564 -63.12403 2011 ft 135 kts 162°
2026-04-29 12:34 18.20949 -63.11824 2015 ft 115 kts 106°
2026-04-29 12:34 18.20678 -63.11081 2003 ft 106 kts 106°
2026-04-29 12:35 18.20606 -63.10349 1969 ft 96 kts 93°
2026-04-29 12:35 18.20560 -63.09550 1392 ft 123 kts 92°
2026-04-29 12:35 18.20549 -63.08622 887 ft 121 kts 91°
2026-04-29 12:35 18.20522 -63.07781 496 ft 108 kts 92°
2026-04-29 12:36 18.20504 -63.07053 320 ft 93 kts 91°
2026-04-29 12:36 18.20492 -63.06397 217 ft 90 kts 89°
2026-04-29 12:36 18.20489 -63.05764 120 ft 73 kts 89°
2026-04-29 12:36 18.20487 -63.05560 123 ft 0 kts 91°
2026-04-29 12:38 18.20487 -63.05550 123 ft 0 kts 92°
2026-04-29 12:38 18.20487 -63.05546 123 ft 6 kts 92°
2026-04-29 12:39 18.20485 -63.05417 125 ft 24 kts 88°
2026-04-29 12:39 18.20486 -63.05236 123 ft 21 kts 93°
2026-04-29 12:39 18.20459 -63.05108 118 ft 15 kts 181°
2026-04-29 12:39 18.20395 -63.05149 122 ft 13 kts 244°
2026-04-29 12:40 18.20390 -63.05186 122 ft 0 kts 18°